[[{"header":{"parameterUnit":"m.s-1","parameterCategory":1,"la1":30.2991,"la2":30.254,"lo1":-89.0895,"lo2":-89.0444,"dy":0.0017,"dx":0.0017,"nx":28,"ny":28,"refTime":"2023-10-09T09:00:00:Z","depth":0,"parameterNumber":2,"parameterNumberName":"U-component_of_WINDS"},"data":[0,0,0,0,0,0,0,0,0,0,0,0,0,0,0,0,0,0,0,0,0,0,0,0,0,0,0,0,0,0,0,0,0,0,0,0,0,0,0,0,0,0,0,0,0,0,0,0,0,0,0,0,0,0,0,0,0,0,-0.9737,-0.9738,0,-0.9813,-0.9814,-0.9815,-0.9821,-0.982,-0.982,-0.9819,-0.9899,-0.9901,-0.9904,0,0,0,0,0,0,0,0,0,0,0,0,0,-0.9599,-0.9602,-0.9737,-0.9738,-0.9739,-0.9813,-0.9814,-0.9815,-0.9821,-0.982,-0.9819,-0.9818,-0.9898,-0.9901,-0.9904,0,0,0,0,0,0,0,0,0,0,0,0,0,-0.9666,-0.9603,-0.9737,-0.9751,-0.9753,-0.9813,-0.9814,-0.9815,-0.9822,-0.982,-0.9819,-0.9818,-0.9896,-0.9901,-0.9905,-0.9956,0,0,-0.9918,-0.992,0,0,0,0,0,0,0,0,-0.9662,-0.9671,-0.9748,-0.975,-0.9752,-0.9806,-0.9795,-0.9863,-0.9822,-0.9796,-0.9819,-0.9817,-0.9869,-0.9875,-0.9893,-0.996,-0.9964,-0.9919,-0.9921,-0.9923,-0.9924,0,0,0,0,0,0,0,-0.9657,-0.9667,-0.9767,-0.9749,-0.9752,-0.9754,-0.9762,-0.9808,-0.9838,-0.9798,-0.9798,-0.9807,-0.987,-0.9888,-0.9894,-0.9965,-0.9918,-0.9922,-0.9925,-0.9927,-1.008,-1.0081,0,0,0,0,0,0,-0.965,-0.9664,-0.9765,-0.9769,-0.9703,-0.9758,-0.9767,-0.979,-0.9838,-0.9844,-0.9808,-0.9807,-0.9882,-0.9889,-0.9897,-0.9961,-0.9923,-0.9927,-0.993,-1.0078,-1.008,-1.0081,0,0,0,0,0,0,-0.9647,-0.9659,-0.9762,-0.9717,-0.973,-0.9761,-0.9788,-0.9793,-0.9811,-0.9846,-0.9851,-0.9821,-0.9881,-0.9891,-0.9942,-0.9964,-0.9929,-0.9933,-1.0076,-1.0079,-1.0081,-1.0089,0,0,0,0,0,0,-0.9643,-0.9658,-0.9677,-0.9717,-0.9732,-0.9804,-0.9789,-0.9795,-0.9818,-0.9818,-0.9859,-0.9865,-0.9881,-0.9935,-0.9946,-0.9969,-0.9936,-1.0075,-1.0077,-1.008,-1.0087,-1.0091,-1.0095,0,0,0,0,0,-0.9638,-0.9676,-0.9678,-0.969,-0.9757,-0.9805,-0.9814,-0.9831,-0.982,-0.984,-0.9863,-0.9864,-0.996,-0.994,-0.9953,-0.9978,-1.0073,-1.0077,-1.008,-1.0085,-1.009,-1.0095,0,0,0,0,0,0,-0.9638,-0.9682,-0.9684,-0.9736,-0.9767,-0.9806,-0.9832,-0.9836,-0.9871,-0.9869,-0.9888,-0.9898,-0.9948,-0.9968,-0.9945,-1.003,-1.0016,-1.0021,-1.0015,-1.0021,-1.0025,-1.0019,-0.994,0,0,0,0,0,-0.9644,-0.9679,-0.9716,-0.9759,-0.9774,-0.98,-0.9822,-0.9832,-0.9865,-0.9878,-0.9904,-0.9937,-0.9974,-0.9999,-1.0035,-1.009,-1.01,-1.0113,-1.0117,-1.0121,-1.0125,-1.0157,-1.0163,-1.0092,-1.0092,-1.0092,0,0,-0.9657,-0.9685,-0.9706,-0.9759,-0.9784,-0.9821,-0.9811,-0.985,-0.9878,-0.9884,-0.9934,-0.9954,-0.9992,-1.0045,-1.007,-1.0063,-1.0147,-1.0125,-1.0127,-1.013,-1.0161,-1.0168,-1.0173,-1.0095,-1.0094,-1.0094,0,0,-0.97,-0.9724,-0.9763,-0.9788,-0.9826,-0.9844,-0.9853,-0.9892,-0.9906,-0.9956,-0.9962,-0.9995,-1.0059,-1.0086,-1.0108,-1.0162,-1.0165,-1.0173,-1.0194,-1.0225,-1.023,-1.0235,-1.0255,-1.0262,-1.0178,-1.0178,-1.0178,0,-0.9711,-0.9766,-0.9783,-0.9822,-0.9845,-0.9853,-0.9893,-0.9917,-0.9965,-0.9981,-0.9973,-1.0054,-1.008,-1.014,-1.0153,-1.017,-1.0182,-1.0168,-1.0228,-1.0233,-1.0238,-1.0257,-1.0265,-1.0179,-1.0179,-1.0179,-1.0179,0,-0.9778,-0.9816,-0.9843,-0.9889,-0.9916,-0.9955,-0.9979,-1.0004,-1.0012,-1.0031,-1.0082,-1.0113,-1.0156,-1.0171,-1.018,-1.0233,-1.0228,-1.0224,-1.0209,-1.0246,-1.0264,-1.0271,-1.018,-1.018,-1.0179,-1.0179,0,0,-0.9822,-0.9878,-0.9887,-0.9909,-0.9951,-0.9982,-1.0022,-1.0064,-1.0085,-1.0118,-1.0153,-1.0208,-1.0204,-1.0229,-1.0241,-1.0268,-1.0309,-1.0261,-1.0262,-1.0269,-1.037,-1.0373,-1.0381,-1.0311,-1.0313,-1.0314,-1.0367,0,-0.987,-0.994,-0.9957,-1.0018,-1.0054,-1.0062,-1.0098,-1.0128,-1.0147,-1.0181,-1.0202,-1.024,-1.0233,-1.0248,-1.0275,-1.0298,-1.033,-1.0295,-1.0345,-1.0346,-1.0335,-1.0391,-1.0394,-1.0442,-1.0375,-1.0376,-1.0377,0,-0.9934,-0.9969,-1.0033,-1.0072,-1.0088,-1.0119,-1.0159,-1.0191,-1.0227,-1.0239,-1.0267,-1.0276,-1.0319,-1.0303,-1.0363,-1.0339,-1.036,-1.0375,-1.0378,-1.0383,-1.0363,-1.0398,-1.0458,-1.0465,-1.0388,-1.0387,-1.0386,0,-0.996,-1.0023,-1.007,-1.0088,-1.0134,-1.0156,-1.0177,-1.0211,-1.0235,-1.0271,-1.0287,-1.0327,-1.035,-1.0381,-1.0402,-1.0388,-1.0461,-1.0445,-1.0472,-1.0472,-1.0487,-1.0486,-1.0552,-1.0501,-1.0501,-1.0501,-1.05,0,-1.0011,-1.005,-1.0082,-1.0111,-1.0155,-1.0175,-1.0219,-1.0239,-1.027,-1.0304,-1.0314,-1.0345,-1.037,-1.0406,-1.0422,-1.047,-1.048,-1.0491,-1.0495,-1.049,-1.0489,-1.0505,-1.0502,-1.0503,-1.0502,-1.0502,-1.0501,0,-1.0047,-1.007,-1.0121,-1.0162,-1.0173,-1.0204,-1.0239,-1.0267,-1.0287,-1.0329,-1.0341,-1.0371,-1.0414,-1.0437,-1.049,-1.0502,-1.0555,-1.0557,-1.0543,-1.0544,-1.057,-1.0567,-1.0649,-1.066,-1.0601,-1.0602,-1.0602,0,-1.0078,-1.0108,-1.0152,-1.0175,-1.0196,-1.0233,-1.0258,-1.0279,-1.0305,-1.0348,-1.0372,-1.0415,-1.045,-1.0517,-1.0545,-1.0586,-1.0589,-1.0615,-1.0596,-1.059,-1.059,-1.0588,-1.0591,-1.0618,-1.0619,-1.0619,-1.062,0,-1.0131,-1.0141,-1.0176,-1.0216,-1.0245,-1.0278,-1.031,-1.0329,-1.0355,-1.0384,-1.0427,-1.0454,-1.0509,-1.0552,-1.0595,-1.0617,-1.0623,-1.0626,-1.0634,-1.0629,-1.062,-1.0626,-1.0552,-1.0624,-1.0623,-1.0623,-1.0623,-1.0622,-1.0165,-1.0193,-1.0228,-1.0267,-1.0294,-1.0324,-1.0353,-1.0376,-1.0413,-1.0458,-1.0469,-1.0514,-1.055,-1.0609,-1.0633,-1.067,-1.0665,-1.0677,-1.068,-1.0683,-1.0684,-1.0614,-1.0678,-1.0678,-1.0677,-1.0677,-1.0677,0,-1.0219,-1.0242,-1.0278,-1.0323,-1.0354,-1.0357,-1.0393,-1.0419,-1.0459,-1.0492,-1.0526,-1.0576,-1.0618,-1.0649,-1.0692,-1.0716,-1.072,-1.0726,-1.0725,-1.073,-1.0685,-1.0674,-1.0723,-1.0723,-1.0723,-1.0723,-1.0722,-1.0722,-1.025,-1.0297,-1.0311,-1.0372,-1.0395,-1.044,-1.046,-1.0488,-1.0515,-1.057,-1.0605,-1.0625,-1.0657,-1.0703,-1.0742,-1.075,-1.0765,-1.0772,-1.078,-1.0738,-1.0733,-1.0728,-1.0718,-1.0775,-1.0775,-1.0822,-1.0823,-1.0823]},{"header":{"parameterUnit":"m.s-1","parameterCategory":1,"la1":30.2991,"la2":30.254,"lo1":-89.0895,"lo2":-89.0444,"dy":0.0017,"dx":0.0017,"nx":28,"ny":28,"refTime":"2023-10-09T09:00:00:Z","depth":0,"parameterNumber":3,"parameterNumberName":"V-component_of_WINDS"},"data":[0,0,0,0,0,0,0,0,0,0,0,0,0,0,0,0,0,0,0,0,0,0,0,0,0,0,0,0,0,0,0,0,0,0,0,0,0,0,0,0,0,0,0,0,0,0,0,0,0,0,0,0,0,0,0,0,0,0,0.1351,0.1351,0,0.1362,0.1362,0.1362,0.1385,0.1385,0.1386,0.1386,0.1395,0.1395,0.1394,0,0,0,0,0,0,0,0,0,0,0,0,0,0.135,0.135,0.1351,0.1351,0.1351,0.1362,0.1362,0.1362,0.1385,0.1385,0.1386,0.1386,0.1395,0.1395,0.1394,0,0,0,0,0,0,0,0,0,0,0,0,0,0.1354,0.135,0.1351,0.1364,0.1365,0.1362,0.1362,0.1362,0.1385,0.1385,0.1386,0.1387,0.1395,0.1395,0.1394,0.1378,0,0,0.1393,0.1393,0,0,0,0,0,0,0,0,0.1354,0.1354,0.1362,0.1363,0.1365,0.1373,0.1365,0.1367,0.1384,0.1377,0.1386,0.1387,0.1387,0.1387,0.1388,0.1379,0.1379,0.1393,0.1393,0.1393,0.1393,0,0,0,0,0,0,0,0.1354,0.1354,0.1355,0.1362,0.1364,0.1369,0.137,0.1365,0.1378,0.1378,0.138,0.1381,0.1388,0.1388,0.1388,0.1379,0.1393,0.1393,0.1393,0.1393,0.1359,0.1358,0,0,0,0,0,0,0.1352,0.1354,0.1355,0.1356,0.1361,0.1369,0.137,0.1369,0.1378,0.138,0.138,0.1382,0.1388,0.1388,0.1388,0.1371,0.1393,0.1393,0.1393,0.1359,0.1359,0.1358,0,0,0,0,0,0,0.1352,0.1352,0.1355,0.1355,0.1356,0.1368,0.1367,0.1369,0.1369,0.138,0.1382,0.1378,0.1389,0.1389,0.1381,0.1371,0.1393,0.1392,0.136,0.1359,0.1358,0.1335,0,0,0,0,0,0,0.1352,0.1351,0.1346,0.1355,0.1356,0.1347,0.1366,0.1369,0.1369,0.1371,0.1378,0.138,0.1389,0.1381,0.1381,0.1371,0.1392,0.1361,0.136,0.1359,0.1337,0.1333,0.133,0,0,0,0,0,0.1351,0.1338,0.1345,0.1345,0.1349,0.1347,0.1347,0.1359,0.1368,0.1362,0.1369,0.138,0.1373,0.138,0.138,0.137,0.1362,0.136,0.1359,0.1338,0.1334,0.133,0,0,0,0,0,0,0.1326,0.1339,0.1348,0.1337,0.1341,0.1351,0.1344,0.1354,0.1354,0.1356,0.1369,0.1371,0.1361,0.1365,0.1373,0.1356,0.1369,0.1367,0.1354,0.135,0.1347,0.1346,0.1392,0,0,0,0,0,0.132,0.1318,0.1329,0.1318,0.132,0.1331,0.1331,0.1339,0.1344,0.1345,0.1351,0.1354,0.1353,0.1351,0.1351,0.1337,0.1339,0.1331,0.1327,0.1325,0.1323,0.1317,0.1313,0.1353,0.1353,0.1353,0,0,0.1306,0.1313,0.131,0.1314,0.1317,0.1315,0.1333,0.1328,0.1326,0.1344,0.1338,0.1342,0.1347,0.1336,0.1332,0.1339,0.1313,0.1323,0.1321,0.132,0.1315,0.1311,0.1308,0.1351,0.1352,0.1352,0,0,0.1279,0.1284,0.1276,0.128,0.1286,0.1294,0.1292,0.1301,0.1305,0.1299,0.1313,0.131,0.1307,0.131,0.1311,0.1287,0.1297,0.1286,0.1269,0.1263,0.126,0.1258,0.1249,0.1246,0.1284,0.1284,0.1284,0,0.1261,0.1258,0.1271,0.1266,0.1268,0.1285,0.1277,0.128,0.1285,0.1285,0.1293,0.129,0.1294,0.1286,0.128,0.128,0.1278,0.1285,0.126,0.1257,0.1255,0.1247,0.1244,0.1283,0.1283,0.1283,0.1283,0,0.1235,0.1233,0.1226,0.1231,0.1232,0.1225,0.1238,0.1236,0.1245,0.1252,0.1246,0.1252,0.1253,0.1251,0.1259,0.1243,0.1248,0.1257,0.1271,0.125,0.1243,0.124,0.1281,0.1281,0.1282,0.1282,0,0,0.1192,0.1206,0.1204,0.1207,0.1215,0.1213,0.1208,0.121,0.1209,0.1212,0.1208,0.1206,0.1215,0.1216,0.1225,0.122,0.1201,0.123,0.123,0.1225,0.1184,0.1177,0.1174,0.1207,0.1207,0.1207,0.1184,0,0.1168,0.116,0.1172,0.1162,0.116,0.1177,0.1172,0.1177,0.1183,0.1182,0.1189,0.1188,0.12,0.1201,0.1197,0.1204,0.1193,0.1206,0.1204,0.1204,0.1202,0.117,0.1162,0.1141,0.1182,0.1181,0.1181,0,0.1138,0.1141,0.113,0.1141,0.114,0.1136,0.1139,0.1138,0.1144,0.1149,0.1151,0.1161,0.1157,0.117,0.1164,0.1173,0.1173,0.1176,0.1176,0.1176,0.1191,0.117,0.1134,0.1131,0.1176,0.1177,0.1177,0,0.1108,0.111,0.1104,0.1106,0.1117,0.1114,0.1119,0.1125,0.1126,0.1128,0.1129,0.1131,0.1132,0.1133,0.1143,0.1152,0.1136,0.115,0.114,0.114,0.1136,0.1136,0.11,0.1136,0.1136,0.1136,0.1136,0,0.108,0.1073,0.1091,0.1087,0.108,0.1094,0.1087,0.1093,0.1099,0.1096,0.111,0.1108,0.1122,0.1121,0.113,0.1124,0.1124,0.1128,0.113,0.1127,0.1126,0.1127,0.1129,0.1135,0.1135,0.1135,0.1135,0,0.1045,0.1057,0.1052,0.1064,0.1067,0.1061,0.1071,0.1068,0.1076,0.1073,0.1073,0.1085,0.1085,0.1096,0.1097,0.1103,0.1094,0.1098,0.1092,0.1094,0.1083,0.1084,0.1047,0.1043,0.108,0.108,0.1079,0,0.1027,0.1022,0.1033,0.1033,0.1038,0.1037,0.1038,0.1052,0.1053,0.1059,0.1056,0.1057,0.1058,0.1057,0.1066,0.1067,0.1072,0.1059,0.1073,0.107,0.1073,0.1073,0.1073,0.1056,0.1056,0.1055,0.1055,0,0.0992,0.0998,0.1,0.1003,0.1005,0.1008,0.1012,0.1011,0.1026,0.1026,0.1027,0.1028,0.103,0.1031,0.1035,0.1039,0.1049,0.1051,0.1049,0.1045,0.1042,0.1044,0.1085,0.1052,0.1052,0.1052,0.1052,0.1053,0.0965,0.0962,0.097,0.0971,0.0976,0.098,0.0978,0.0986,0.0987,0.0991,0.0999,0.0998,0.1004,0.101,0.1014,0.1013,0.102,0.1016,0.1016,0.1015,0.1013,0.1042,0.1014,0.1014,0.1014,0.1014,0.1014,0,0.0931,0.0938,0.0939,0.0945,0.0946,0.0957,0.0962,0.0962,0.0962,0.0967,0.0969,0.097,0.0971,0.098,0.0983,0.098,0.0985,0.0981,0.0981,0.0982,0.1007,0.1009,0.0977,0.0977,0.0977,0.0977,0.0977,0.0977,0.0914,0.091,0.0917,0.0915,0.0922,0.0922,0.0924,0.0928,0.0932,0.0933,0.0934,0.0941,0.0948,0.0951,0.0953,0.0955,0.0956,0.0949,0.0953,0.0976,0.098,0.0984,0.0985,0.0949,0.0949,0.0929,0.0929,0.0929]}]]